Wind_Speed
15 15 12 8 8 10 13 16 19 21 21 20 20 20 20 18 16 14 13 12 11 10 9 8 8 7 6 4 4 3 2 2 2 2 2 2 1 1 1 0 1 1 2
15 14 12 7 7 8 12 16 19 21 21 21 20 20 20 18 16 15 13 13 12 11 10 9 8 8 7 5 4 3 3 2 2 2 2 2 2 1 1 1 0 0 1
13 13 11 9 6 7 11 16 19 21 21 20 19 18 18 17 17 15 14 13 13 12 11 10 9 8 8 6 5 4 3 3 2 2 2 2 2 2 2 2 1 1 1
11 11 10 9 6 7 10 15 18 19 20 20 20 19 18 18 17 16 15 14 14 13 12 10 10 9 9 7 6 5 5 4 3 2 1 0 1 1 1 1 2 2 2
11 10 9 8 6 6 9 14 17 18 19 20 21 21 19 18 18 17 16 15 14 14 13 12 11 10 10 9 8 7 6 5 4 3 2 2 1 1 2 2 3 3 4
10 9 8 8 6 4 7 11 15 18 19 20 20 20 19 19 18 17 17 16 15 15 14 13 12 11 11 10 9 8 8 7 6 5 4 3 3 3 3 4 4 5 5
10 9 8 7 4 4 7 9 13 16 17 18 19 19 19 18 18 17 17 16 16 16 15 14 13 13 12 12 11 10 10 9 8 7 7 6 6 6 6 6 6 7 7
10 8 7 5 3 4 5 8 11 13 14 16 17 18 18 18 17 17 17 17 16 16 16 16 15 14 13 13 12 12 12 11 11 10 10 9 9 9 9 9 9 10 10
9 8 6 4 4 5 5 7 9 11 12 14 15 16 17 17 17 17 17 17 16 16 17 17 17 16 15 15 15 14 14 13 13 13 13 13 13 13 13 13 13 13 14
10 8 6 5 5 6 7 8 10 11 12 13 14 15 16 16 17 17 17 17 17 17 18 18 18 18 17 17 17 17 17 17 17 17 17 17 17 17 17 17 17 18 18
10 8 8 7 6 7 8 9 11 12 13 14 15 16 16 16 17 18 19 19 19 19 19 19 20 20 20 20 20 20 20 20 20 21 21 21 21 21 21 21 22 22 22
10 9 8 8 7 8 9 10 11 12 13 15 16 16 16 16 17 18 19 19 20 20 21 21 22 22 22 23 23 23 23 23 24 24 24 25 25 25 25 26 26 26 26
10 9 9 9 9 9 9 10 11 12 13 15 16 17 17 18 18 18 19 20 21 21 21 22 23 24 25 25 25 26 26 26 27 27 28 28 29 29 29 29 30 30 30
11 11 11 11 10 9 9 10 11 11 12 14 15 18 18 19 19 19 19 20 21 21 23 24 25 26 27 27 28 28 29 29 30 30 31 32 32 33 33 33 34 34 34
13 13 13 12 12 11 10 10 11 11 12 13 14 16 18 19 20 20 20 20 21 22 24 25 27 28 29 30 30 31 31 32 32 33 34 35 35 36 36 37 37 37 37
15 16 15 14 13 13 12 11 11 11 12 13 14 16 17 19 20 20 21 21 22 23 24 27 28 29 30 32 33 34 34 35 36 35 36 37 38 38 39 39 40 40 40
17 17 16 15 15 14 13 12 12 12 13 13 14 16 18 18 19 20 21 23 24 24 26 27 29 31 31 32 34 34 35 36 37 38 38 39 40 41 41 41 41 42 42
18 18 17 17 17 17 16 16 15 15 15 16 17 18 19 20 21 22 23 24 25 27 28 29 30 32 33 35 36 37 37 37 38 39 40 41 42 42 43 43 44 44 44
20 19 19 19 19 19 19 19 19 18 19 19 19 20 21 22 23 24 25 27 28 29 30 31 33 33 34 36 37 38 39 40 41 41 42 43 43 44 45 45 45 45 46
20 20 21 21 20 20 20 20 20 21 21 22 23 23 24 24 25 26 28 29 29 30 31 33 34 35 37 38 38 40 42 43 43 43 44 44 45 46 47 47 47 47 47
20 20 21 22 21 21 21 22 22 23 24 25 26 26 27 28 29 30 31 32 32 32 33 34 36 37 38 38 39 40 43 44 44 45 45 46 46 47 48 48 49 49 49
20 20 20 21 22 23 23 23 23 24 25 26 28 28 29 29 30 31 31 31 32 33 34 35 36 36 36 38 40 41 42 43 44 45 46 46 46 46 47 48 49 50 50
21 21 22 22 23 23 23 23 24 25 26 27 27 28 29 31 32 32 33 33 34 34 35 35 37 37 38 39 40 41 42 43 44 45 45 46 46 46 47 48 48 49 50
21 22 22 22 22 23 23 25 25 26 27 27 28 29 30 32 33 34 35 35 36 36 36 37 38 39 39 40 41 41 42 43 45 46 46 46 47 48 48 48 49 50 51
22 22 22 23 23 24 25 26 26 27 28 29 30 32 33 34 34 35 36 37 37 38 38 39 39 40 41 42 43 43 44 44 45 46 48 48 48 49 50 50 52 52 53
22 22 22 23 24 24 25 26 27 29 30 31 32 33 34 35 36 37 38 38 38 39 40 40 41 42 43 43 44 44 45 45 46 47 48 49 50 51 52 52 53 53 54
Wind_Direction
322 322 316 295 262 229 216 205 202 202 203 206 208 209 210 214 220 222 225 225 228 229 232 229 223 216 210 200 194 183 167 136 116 104 87 69 51 32 18 301 251 247 256
317 319 318 293 270 232 213 208 206 204 202 204 202 204 207 211 213 216 219 224 227 228 224 218 214 210 205 197 189 181 171 151 134 118 99 87 64 44 42 42 83 238 274
317 315 314 304 276 235 214 205 203 201 201 201 199 203 205 206 209 213 215 221 223 221 217 216 215 209 203 198 193 189 185 172 157 137 116 94 72 61 48 47 40 6 340
319 316 309 303 280 240 212 202 202 202 202 202 202 205 208 207 207 210 215 218 218 216 215 217 216 210 206 203 201 201 198 192 192 194 179 115 51 48 33 20 355 352 349
319 313 305 301 287 246 208 199 200 200 201 203 204 204 206 207 207 210 214 215 215 215 216 217 216 214 211 209 209 210 210 210 214 225 234 252 282 319 334 336 334 333 330
322 314 304 298 283 241 204 198 195 196 197 199 200 202 206 208 209 212 215 216 216 216 219 220 219 217 216 217 217 218 219 221 229 237 245 257 276 291 300 308 314 314 311
319 317 310 301 275 223 204 190 190 191 195 196 196 200 204 206 210 214 214 216 218 219 221 223 223 223 222 221 221 223 225 231 239 246 254 263 273 284 288 292 296 297 298
315 313 312 302 264 212 194 192 191 191 192 192 194 199 203 206 210 213 215 218 222 222 224 226 227 227 226 227 228 231 235 240 247 252 257 263 269 275 281 285 288 289 291
309 304 300 280 246 224 209 201 194 193 195 197 201 204 209 211 212 216 220 222 225 227 229 231 233 232 232 234 236 238 242 247 252 257 262 266 270 273 277 280 281 283 285
299 291 283 261 241 229 218 211 207 205 204 205 208 208 212 215 218 222 224 226 229 232 235 235 237 237 237 240 242 244 247 251 255 260 264 267 271 274 276 278 279 280 281
292 273 262 255 242 231 224 213 213 214 213 214 215 215 219 221 224 226 229 232 235 238 239 239 240 240 242 244 247 250 253 255 259 262 265 268 271 273 276 278 280 281 281
281 267 256 251 247 234 227 222 218 220 219 218 219 220 223 226 229 233 236 239 241 243 244 243 243 244 246 249 251 254 258 260 262 264 266 268 271 273 275 277 279 279 280
273 265 262 254 247 241 236 226 223 223 224 225 224 227 229 231 234 240 244 246 246 247 247 247 247 248 250 253 255 258 260 262 264 265 267 269 271 272 274 276 277 278 278
269 266 263 256 251 246 242 233 226 224 228 231 234 235 236 237 240 243 245 247 249 251 251 250 251 252 254 256 258 259 262 264 266 268 269 270 272 273 275 276 276 276 277
264 263 259 255 252 248 246 241 234 235 235 236 239 239 240 242 244 246 247 250 252 256 257 255 255 255 257 259 261 263 265 266 268 270 271 272 274 275 276 276 276 277 277
263 262 256 253 249 247 247 246 240 240 241 240 243 245 244 245 247 249 251 253 257 261 261 259 258 259 262 264 264 265 267 267 268 270 270 272 274 275 276 277 277 277 277
261 257 251 250 248 248 250 250 246 250 253 253 253 251 249 249 250 253 256 257 260 263 263 263 262 263 265 265 267 267 268 269 268 269 270 271 273 274 275 276 277 278 277
255 254 252 251 252 254 252 253 255 258 262 262 261 259 256 257 259 261 262 262 265 266 267 266 267 267 267 267 268 267 268 270 270 270 271 272 273 275 275 276 276 277 277
250 251 253 252 253 254 253 255 258 261 264 267 267 267 264 264 265 266 267 268 269 269 269 269 269 270 271 271 270 270 271 271 271 272 273 273 273 274 275 275 276 276 277
251 252 252 250 250 253 253 256 259 263 265 267 268 270 269 269 268 269 269 270 270 271 272 272 272 272 273 272 272 272 272 272 271 271 272 273 274 274 275 275 275 276 276
249 252 253 252 253 256 257 257 260 263 266 269 270 271 272 273 272 272 270 270 272 274 275 275 275 275 275 275 275 275 274 274 272 272 273 273 274 275 275 275 276 276 276
246 252 254 254 254 256 257 259 261 265 267 270 272 273 273 273 277 278 275 274 275 275 277 277 276 276 276 276 277 276 275 275 275 274 274 274 274 275 276 276 277 277 276
247 252 255 255 256 257 259 262 265 268 269 271 274 274 275 276 277 278 278 277 277 277 278 278 278 277 277 277 276 276 276 275 276 276 274 274 274 276 278 278 278 278 277
249 251 254 256 258 260 262 265 267 269 272 274 277 278 278 279 279 280 280 280 279 279 280 281 280 279 279 279 278 277 277 276 276 276 275 274 275 276 277 277 277 277 278
247 251 254 257 259 261 264 266 269 273 276 278 279 280 281 282 282 283 284 283 282 282 283 282 281 280 280 280 280 280 279 278 278 277 277 277 277 277 277 277 278 278 279
246 251 255 259 261 264 266 269 273 276 279 281 282 283 283 284 284 285 285 285 285 284 283 283 283 283 282 282 281 281 281 280 279 279 279 278 277 277 278 279 279 279 279
Height
5830 5827 5825 5823 5822 5822 5824 5827 5831 5835 5839 5843 5847 5850 5854 5857 5860 5863 5865 5866 5868 5870 5871 5872 5873 5874 5875 5875 5876 5877 5878 5878 5879 5879 5879 5879 5879 5879 5879 5879 5879 5879 5879
5829 5826 5823 5821 5821 5821 5822 5825 5829 5833 5837 5841 5844 5848 5852 5855 5858 5861 5863 5865 5867 5868 5870 5871 5872 5873 5874 5875 5876 5877 5878 5878 5879 5879 5880 5879 5880 5879 5879 5879 5878 5878 5878
5828 5826 5823 5821 5820 5820 5821 5823 5827 5830 5835 5839 5843 5846 5850 5853 5856 5859 5861 5863 5865 5867 5869 5870 5871 5872 5873 5874 5875 5877 5878 5878 5879 5879 5880 5880 5880 5879 5879 5879 5878 5878 5878
5827 5825 5823 5821 5819 5819 5819 5821 5825 5829 5833 5837 5841 5845 5848 5851 5854 5857 5859 5862 5864 5865 5867 5869 5870 5872 5873 5874 5875 5876 5877 5878 5879 5879 5880 5880 5880 5880 5879 5879 5878 5878 5877
5826 5824 5823 5821 5819 5818 5819 5821 5823 5827 5831 5835 5839 5843 5846 5849 5852 5855 5858 5860 5862 5864 5866 5868 5869 5871 5872 5873 5874 5876 5877 5878 5878 5879 5879 5879 5879 5879 5879 5879 5878 5878 5877
5826 5824 5822 5820 5819 5818 5819 5820 5823 5826 5829 5833 5836 5840 5844 5847 5850 5853 5856 5858 5860 5862 5864 5866 5868 5869 5871 5872 5873 5875 5876 5877 5877 5878 5878 5879 5879 5879 5878 5878 5878 5877 5877
5825 5824 5822 5820 5818 5819 5820 5821 5823 5826 5829 5831 5835 5839 5842 5845 5848 5851 5854 5856 5859 5861 5863 5864 5866 5868 5869 5871 5872 5873 5874 5875 5876 5877 5877 5877 5877 5877 5877 5877 5876 5876 5875
5825 5823 5822 5820 5819 5821 5821 5823 5824 5826 5828 5831 5834 5838 5841 5844 5846 5849 5852 5854 5856 5858 5860 5862 5864 5866 5867 5869 5870 5871 5873 5873 5874 5875 5875 5876 5876 5875 5875 5875 5874 5874 5873
5824 5823 5822 5821 5821 5821 5822 5824 5825 5826 5828 5831 5834 5837 5840 5842 5844 5847 5849 5852 5854 5856 5858 5860 5862 5863 5865 5866 5868 5869 5870 5871 5872 5872 5873 5873 5873 5873 5873 5872 5872 5872 5870
5823 5822 5822 5822 5822 5822 5822 5823 5825 5827 5828 5831 5833 5836 5838 5840 5843 5845 5847 5849 5851 5853 5855 5857 5859 5860 5862 5863 5865 5866 5867 5867 5868 5869 5869 5869 5870 5869 5869 5869 5868 5868 5867
5822 5821 5821 5821 5821 5822 5821 5822 5824 5826 5828 5830 5832 5834 5836 5839 5841 5842 5844 5846 5848 5850 5852 5853 5855 5857 5858 5860 5861 5862 5863 5863 5864 5864 5865 5865 5865 5865 5864 5864 5863 5863 5862
5820 5820 5820 5821 5821 5821 5822 5822 5823 5825 5827 5828 5830 5832 5834 5836 5838 5840 5842 5843 5845 5846 5848 5849 5851 5852 5854 5855 5856 5857 5858 5858 5859 5859 5859 5859 5859 5859 5859 5858 5858 5857 5856
5819 5819 5819 5820 5820 5820 5820 5821 5821 5822 5824 5826 5828 5830 5832 5833 5835 5837 5839 5840 5841 5842 5843 5845 5846 5848 5849 5850 5851 5852 5852 5852 5853 5853 5853 5853 5852 5852 5852 5851 5851 5850 5849
5816 5816 5817 5817 5818 5818 5819 5819 5819 5820 5821 5824 5825 5827 5829 5830 5832 5833 5835 5836 5837 5838 5839 5840 5841 5842 5843 5844 5845 5845 5845 5846 5846 5846 5845 5845 5845 5844 5844 5843 5842 5841 5841
5814 5814 5814 5814 5815 5816 5816 5817 5818 5819 5820 5821 5822 5823 5825 5827 5828 5829 5830 5831 5832 5833 5833 5835 5835 5836 5837 5837 5838 5838 5838 5838 5838 5838 5837 5837 5836 5836 5835 5834 5833 5832 5832
5811 5811 5811 5812 5813 5813 5814 5814 5815 5816 5817 5818 5818 5819 5821 5822 5823 5824 5825 5826 5827 5827 5828 5829 5829 5830 5830 5830 5830 5830 5830 5830 5830 5829 5828 5828 5827 5826 5825 5824 5823 5822 5821
5807 5807 5807 5808 5809 5810 5811 5811 5812 5813 5813 5814 5814 5815 5816 5817 5818 5819 5820 5820 5821 5821 5821 5822 5822 5822 5822 5822 5822 5821 5821 5820 5820 5819 5818 5817 5817 5815 5814 5813 5812 5811 5810
5802 5803 5804 5804 5805 5806 5806 5807 5807 5808 5809 5809 5810 5810 5811 5812 5813 5813 5814 5814 5814 5814 5814 5814 5814 5814 5813 5812 5812 5812 5811 5811 5810 5808 5807 5807 5806 5805 5803 5802 5801 5800 5798
5797 5798 5799 5799 5800 5801 5802 5802 5803 5804 5804 5805 5805 5806 5806 5806 5807 5807 5807 5807 5807 5807 5807 5806 5806 5805 5804 5803 5802 5802 5801 5800 5799 5798 5797 5796 5795 5793 5791 5790 5789 5788 5787
5791 5792 5793 5794 5795 5796 5797 5797 5798 5799 5799 5799 5800 5800 5800 5800 5800 5800 5800 5799 5799 5798 5798 5797 5797 5796 5794 5793 5792 5791 5790 5789 5788 5787 5785 5784 5782 5781 5779 5778 5777 5775 5774
5786 5787 5788 5789 5790 5791 5792 5792 5793 5793 5793 5793 5793 5793 5793 5794 5793 5792 5791 5791 5790 5790 5789 5788 5787 5786 5784 5783 5781 5780 5778 5777 5775 5774 5773 5771 5769 5768 5766 5765 5763 5762 5760
5780 5782 5783 5784 5784 5785 5786 5786 5786 5786 5786 5787 5786 5786 5786 5786 5785 5783 5782 5782 5781 5780 5779 5778 5776 5775 5773 5772 5770 5768 5766 5764 5762 5761 5759 5757 5756 5754 5753 5751 5749 5747 5745
5774 5776 5777 5777 5778 5779 5779 5780 5780 5780 5780 5780 5779 5779 5778 5777 5776 5775 5773 5772 5771 5770 5768 5767 5765 5763 5762 5760 5758 5756 5754 5752 5750 5748 5746 5744 5743 5741 5739 5737 5735 5733 5730
5768 5769 5770 5771 5772 5772 5773 5773 5773 5773 5773 5772 5771 5771 5770 5768 5767 5765 5763 5762 5760 5759 5757 5755 5754 5752 5750 5748 5746 5744 5741 5739 5737 5735 5733 5731 5729 5727 5725 5722 5720 5717 5715
5761 5762 5764 5764 5765 5765 5766 5766 5765 5765 5764 5763 5762 5761 5760 5758 5757 5755 5753 5751 5749 5748 5746 5744 5741 5739 5737 5735 5733 5730 5728 5726 5724 5721 5719 5716 5714 5712 5710 5707 5704 5702 5699
5755 5756 5757 5758 5758 5758 5758 5758 5758 5757 5756 5754 5753 5752 5750 5748 5746 5744 5742 5740 5738 5736 5733 5731 5729 5726 5724 5722 5719 5717 5714 5712 5709 5707 5704 5702 5699 5697 5694 5691 5689 5686 5683